This demonstration page uses our WeatherBlox Daily Observations layout. Learn more.

Left ArrowRight Arrow

Hourly Observations for July 5, 2016

Temp ( °F °C ) Dew Point ( °F °C ) Humidity (%) Winds ( mph kmh ) Pressure ( in mb ) Visibility ( mi km ) Precip ( " mm )
12:58 am 00:58 Clear 71 21.9 71 21.6 98 98 SE 6 9 29.81 1010 10 16 0.00 0.00
1:58 am 01:58 Clear 70 21.1 70 21.1 100 100 ESE 6 9 29.81 1010 10 16 0.00 0.00
2:58 am 02:58 Cloudy 71 21.8 71 21.6 99 99 ESE 6 9 29.81 1009 10 16 0.00 0.00
3:58 am 03:58 Mostly Cloudy 71 21.6 71 21.4 99 99 E 6 9 29.81 1009 10 16 0.00 0.00
4:58 am 04:58 Clear 70 21 70 21 100 100 E 7 11 29.79 1009 10 16 0.00 0.00
5:58 am 05:58 Sunny 69 20.3 68 20.2 99 99 ESE 7 11 29.79 1009 10 16 0.00 0.00
6:58 am 06:58 Sunny 70 21.1 70 21.1 100 100 E 5 7 29.80 1009 10 16 0.00 0.00
7:58 am 07:58 Sunny 73 22.9 71 21.7 93 93 SE 8 13 29.80 1009 10 16 0.00 0.00
8:58 am 08:58 Sunny 77 25 73 22.5 86 86 SE 10 17 29.79 1009 9 14 0.00 0.00
9:58 am 09:58 Sunny 79 26.2 74 23.2 84 84 ESE 10 17 29.79 1009 9 14 0.00 0.00
10:58 am 10:58 Mostly Sunny 82 27.6 75 24.1 81 81 E 9 15 29.77 1008 10 16 0.00 0.00
11:58 am 11:58 Sunny 85 29.4 77 25 77 77 ESE 9 15 29.78 1008 10 16 0.00 0.00
12:58 pm 12:58 Partly Cloudy 87 30.3 78 25.4 75 75 SSE 12 19 29.75 1008 10 16 0.00 0.00
1:58 pm 13:58 Mostly Sunny 89 31.4 78 25.6 71 71 S 9 15 29.75 1008 10 16 0.00 0.00
2:58 pm 14:58 Sunny 90 32 79 26.2 71 71 SSE 14 22 29.74 1007 10 16 0.00 0.00
3:58 pm 15:58 Sunny 92 33.4 80 26.8 68 68 SSE 13 20 29.73 1007 10 16 0.00 0.00
4:58 pm 16:58 Sunny 93 33.8 81 27 68 68 SE 10 17 29.72 1006 10 16 0.00 0.00
5:58 pm 17:58 Sunny 92 33.6 80 26.5 66 66 SE 6 9 29.71 1006 10 16 0.00 0.00
6:58 pm 18:58 Sunny 93 33.8 80 26.8 67 67 SE 5 7 29.70 1006 10 16 0.00 0.00
7:58 pm 19:58 Sunny 91 32.6 82 27.8 76 76 E 5 7 29.70 1006 10 16 0.00 0.00
8:58 pm 20:58 Sunny 88 31 80 26.7 78 78 S 6 9 29.69 1005 10 16 0.00 0.00
9:58 pm 21:58 Mostly Cloudy 86 30.1 78 25.4 76 76 S 5 7 29.72 1006 10 16 0.00 0.00
10:58 pm 22:58 Mostly Clear 86 29.8 78 25.3 77 77 WNW 10 17 29.74 1007 10 16 0.00 0.00
11:08 pm 23:08 Mostly Cloudy with Thunderstorms 84 29 75 24 74 74 WNW 7 11 29.71 1006 10 16 0.00 0.00
11:31 pm 23:31 Mostly Cloudy with Thunderstorms 82 28 73 23 74 74 W 18 30 29.71 1006 10 16 0.00 0.00
11:56 pm 23:56 Partly Cloudy 84 29 68 20 58 58 ENE 6 9 29.65 1004 10 16 0.00 0.00
11:58 pm 23:58 Partly Cloudy 84 28.8 67 19.7 58 58 ENE 6 9 29.73 1007 10 16 0.00 0.00

Powered by AerisWeather